AALTO-1 (42775 NORAD) Tracking and Keplerian Element Data

This shows tracking and keplerian element data for the satellite.

Feedback or suggestion? Click here.




ElementValue
Catalog42775
NameAALTO-1
Epoch Orbit7755
Epoch Day319.8855897
Epoch Year2018
RAAN16.3726
Inclination97.3819
Eccentricity0.0012591
Argument of Perigee251.1913
Mean Anonmoly108.7957
Mean Motion15.20992657
Decay Rate7.24E-06
L11 42775U 17036L 18319.88558970 .00000724 00000-0 35705-4 0 9991
L22 42775 97.3819 16.3726 0012591 251.1913 108.7957 15.20992657 77556

Live tracking and technical data element details for AALTO-1 (NORAD 42775). AALTO-1 can be tracked NOW for your location showing map with azimuth and elevation plus other details from your city location.

Track the satellite on the map from your city or location and see movement details for azimuth, elevation, latitude, longitude, range, height, and movement on the map or in text.







IsCatalogInMostPopularTable: catalog: 42775, numindb: 146
Update: records affected: 1



GetName: 42775 AALTO-1

Hit Count: updated at: Fri, 16 Nov 2018 09:51:30 GMT